�����͌���@�Y���u�C�̈ړ��ʁi�������j,,,,,,,,,,,,
�@,Time,Time int.,,Lat.,,Long.,,Distance,,Direction,Speed,
Date(yyyy/mm/dd),(hh:mm),(hour),(min),(deg),(min),(deg),(min),(miles),(meter),(deg),(m/s),(knots)
2005/8/31,9:30,0,,36,47.784 ,137,4.140 ,,,,,
2005/8/31,9:35,0,5,36,47.790 ,137,4.152 ,0.01 ,21.02 ,58.19 ,0.07 ,0.14 
2005/8/31,9:40,0,5,36,47.802 ,137,4.164 ,0.02 ,28.48 ,38.87 ,0.09 ,0.18 
2005/8/31,9:45,0,5,36,47.826 ,137,4.170 ,0.02 ,45.28 ,11.43 ,0.15 ,0.29 
2005/8/31,9:50,0,5,36,47.826 ,137,4.188 ,0.01 ,26.77 ,90.06 ,0.09 ,0.17 
2005/8/31,10:00,0,10,36,47.850 ,137,4.182 ,0.02 ,45.28 ,348.69 ,0.08 ,0.15 
2005/8/31,10:05,0,5,36,47.862 ,137,4.176 ,0.01 ,23.92 ,338.15 ,0.08 ,0.16 
2005/8/31,10:10,0,5,36,47.874 ,137,4.176 ,0.01 ,22.19 ,0.06 ,0.07 ,0.14 
2005/8/31,10:15,0,5,36,47.886 ,137,4.158 ,0.02 ,34.78 ,309.72 ,0.12 ,0.23 
2005/8/31,10:20,0,5,36,47.904 ,137,4.158 ,0.02 ,33.29 ,0.06 ,0.11 ,0.22 
2005/8/31,10:25,0,5,36,47.904 ,137,4.152 ,0.00 ,8.92 ,270.06 ,0.03 ,0.06 
2005/8/31,10:30,0,5,36,47.910 ,137,4.164 ,0.01 ,21.02 ,58.19 ,0.07 ,0.14 
2005/8/31,10:35,0,5,36,47.916 ,137,4.140 ,0.02 ,37.38 ,287.33 ,0.12 ,0.24 
2005/8/31,10:40,0,5,36,47.916 ,137,4.152 ,0.01 ,17.85 ,90.06 ,0.06 ,0.12 
2005/8/31,10:45,0,5,36,47.910 ,137,4.146 ,0.01 ,14.24 ,218.86 ,0.05 ,0.09 
2005/8/31,10:50,0,5,36,47.910 ,137,4.140 ,0.00 ,8.92 ,270.06 ,0.03 ,0.06 
2005/8/31,10:55,0,5,36,47.904 ,137,4.146 ,0.01 ,14.24 ,141.25 ,0.05 ,0.09 
2005/8/31,11:00,0,5,36,47.910 ,137,4.140 ,0.01 ,14.24 ,321.25 ,0.05 ,0.09 
2005/8/31,11:10,0,10,36,47.910 ,137,4.134 ,0.00 ,8.92 ,270.06 ,0.01 ,0.03 
2005/8/31,11:20,0,10,36,47.916 ,137,4.140 ,0.01 ,14.24 ,38.87 ,0.02 ,0.05 
2005/8/31,11:25,0,5,36,47.934 ,137,4.134 ,0.02 ,34.47 ,345.05 ,0.11 ,0.22 
2005/8/31,11:30,0,5,36,47.922 ,137,4.116 ,0.02 ,34.78 ,230.40 ,0.12 ,0.23 


�A,Time,Time int.,,Lat.,,Long.,,Distance,,Direction,Speed,
Date(yyyy/mm/dd),(hh:mm),(hour),(min),(deg),(min),(deg),(min),(miles),(meter),(deg),(m/s),(knots)
2005/8/31,11:55,0,,36,47.736 ,137,4.200 ,,,,,
2005/8/31,12:00,0,5,36,47.748 ,137,4.230 ,0.03 ,49.84 ,63.61 ,0.17 ,0.32 
2005/8/31,12:05,0,5,36,47.766 ,137,4.272 ,0.04 ,70.79 ,62.00 ,0.24 ,0.46 
2005/8/31,12:10,0,5,36,47.796 ,137,4.296 ,0.04 ,65.98 ,32.81 ,0.22 ,0.43 
2005/8/31,12:15,0,5,36,47.802 ,137,4.314 ,0.02 ,28.98 ,67.54 ,0.10 ,0.19 
2005/8/31,12:20,0,5,36,47.814 ,137,4.344 ,0.03 ,49.84 ,63.61 ,0.17 ,0.32 
2005/8/31,12:25,0,5,36,47.826 ,137,4.374 ,0.03 ,49.84 ,63.61 ,0.17 ,0.32 
2005/8/31,12:30,0,5,36,47.838 ,137,4.392 ,0.02 ,34.78 ,50.40 ,0.12 ,0.23 
2005/8/31,12:35,0,5,36,47.838 ,137,4.416 ,0.02 ,35.70 ,90.06 ,0.12 ,0.23 
2005/8/31,12:40,0,5,36,47.850 ,137,4.452 ,0.03 ,57.97 ,67.54 ,0.19 ,0.38 
2005/8/31,12:45,0,5,36,47.850 ,137,4.476 ,0.02 ,35.70 ,90.06 ,0.12 ,0.23 
2005/8/31,12:50,0,5,36,47.850 ,137,4.524 ,0.04 ,71.40 ,90.05 ,0.24 ,0.46 
2005/8/31,12:55,0,5,36,47.850 ,137,4.554 ,0.02 ,44.62 ,90.05 ,0.15 ,0.29 
2005/8/31,13:00,0,5,36,47.844 ,137,4.584 ,0.02 ,45.98 ,104.02 ,0.15 ,0.30 
2005/8/31,13:05,0,5,36,47.844 ,137,4.614 ,0.02 ,44.62 ,90.05 ,0.15 ,0.29 
2005/8/31,13:10,0,5,36,47.844 ,137,4.644 ,0.02 ,44.62 ,90.05 ,0.15 ,0.29 
2005/8/31,13:15,0,5,36,47.826 ,137,4.680 ,0.03 ,63.05 ,121.92 ,0.21 ,0.41 
2005/8/31,13:20,0,5,36,47.814 ,137,4.710 ,0.03 ,49.84 ,116.50 ,0.17 ,0.32 
2005/8/31,13:25,0,5,36,47.808 ,137,4.728 ,0.02 ,28.98 ,112.57 ,0.10 ,0.19 
2005/8/31,13:35,0,10,36,47.808 ,137,4.782 ,0.04 ,80.32 ,90.05 ,0.13 ,0.26 
2005/8/31,13:40,0,5,36,47.796 ,137,4.800 ,0.02 ,34.78 ,129.71 ,0.12 ,0.23 
2005/8/31,13:45,0,5,36,47.802 ,137,4.830 ,0.02 ,45.98 ,76.09 ,0.15 ,0.30 
2005/8/31,13:50,0,5,36,47.808 ,137,4.860 ,0.02 ,45.98 ,76.09 ,0.15 ,0.30 
2005/8/31,13:55,0,5,36,47.802 ,137,4.896 ,0.03 ,54.69 ,101.76 ,0.18 ,0.35 
2005/8/31,14:00,0,5,36,47.796 ,137,4.920 ,0.02 ,37.38 ,107.32 ,0.12 ,0.24 
2005/8/31,14:05,0,5,36,47.802 ,137,4.920 ,0.01 ,11.10 ,0.05 ,0.04 ,0.07 
2005/8/31,14:15,0,10,36,47.796 ,137,4.980 ,0.05 ,89.94 ,97.14 ,0.15 ,0.29 


�B,Time,Time int.,,Lat.,,Long.,,Distance,,Direction,Speed,
Date(yyyy/mm/dd),(hh:mm),(hour),(min),(deg),(min),(deg),(min),(miles),(meter),(deg),(m/s),(knots)
2005/8/31,9:30,0,,36,47.598 ,137,4.236 ,,,,,
2005/8/31,9:35,0,5,36,47.586 ,137,4.284 ,0.04 ,74.77 ,107.32 ,0.25 ,0.48 
2005/8/31,9:45,0,10,36,47.550 ,137,4.380 ,0.09 ,157.56 ,115.05 ,0.26 ,0.51 
2005/8/31,9:50,0,5,36,47.556 ,137,4.422 ,0.03 ,63.46 ,79.98 ,0.21 ,0.41 
2005/8/31,9:55,0,5,36,47.556 ,137,4.482 ,0.05 ,89.25 ,90.06 ,0.30 ,0.58 
2005/8/31,10:00,0,5,36,47.532 ,137,4.518 ,0.04 ,69.56 ,129.71 ,0.23 ,0.45 
2005/8/31,10:05,0,5,36,47.556 ,137,4.572 ,0.05 ,91.78 ,61.13 ,0.31 ,0.59 
2005/8/31,10:10,0,5,36,47.544 ,137,4.596 ,0.02 ,42.04 ,121.92 ,0.14 ,0.27 
2005/8/31,10:15,0,5,36,47.478 ,137,4.614 ,0.07 ,124.97 ,167.68 ,0.42 ,0.81 
2005/8/31,10:20,0,5,36,47.514 ,137,4.644 ,0.04 ,80.16 ,33.88 ,0.27 ,0.52 
2005/8/31,10:25,0,5,36,47.526 ,137,4.650 ,0.01 ,23.92 ,21.96 ,0.08 ,0.16 
2005/8/31,10:30,0,5,36,47.538 ,137,4.668 ,0.02 ,34.78 ,50.40 ,0.12 ,0.23 
2005/8/31,10:35,0,5,36,47.550 ,137,4.680 ,0.02 ,28.48 ,38.86 ,0.09 ,0.18 
2005/8/31,10:40,0,5,36,47.514 ,137,4.698 ,0.04 ,71.77 ,158.15 ,0.24 ,0.47 
2005/8/31,10:45,0,5,36,47.526 ,137,4.698 ,0.01 ,22.19 ,0.05 ,0.07 ,0.14 
2005/8/31,10:50,0,5,36,47.532 ,137,4.734 ,0.03 ,54.69 ,78.35 ,0.18 ,0.35 
2005/8/31,10:55,0,5,36,47.508 ,137,4.746 ,0.03 ,47.84 ,158.15 ,0.16 ,0.31 
2005/8/31,11:00,0,5,36,47.526 ,137,4.752 ,0.02 ,34.47 ,15.06 ,0.11 ,0.22 
2005/8/31,11:05,0,5,36,47.532 ,137,4.758 ,0.01 ,14.24 ,38.86 ,0.05 ,0.09 
2005/8/31,11:10,0,5,36,47.556 ,137,4.776 ,0.03 ,51.84 ,31.15 ,0.17 ,0.34 
2005/8/31,11:15,0,5,36,47.544 ,137,4.824 ,0.04 ,74.77 ,107.32 ,0.25 ,0.48 
2005/8/31,11:25,0,10,36,47.562 ,137,4.860 ,0.03 ,63.06 ,58.18 ,0.11 ,0.20 
2005/8/31,11:30,0,5,36,47.568 ,137,4.890 ,0.02 ,45.99 ,76.09 ,0.15 ,0.30 
2005/8/31,11:35,0,5,36,47.550 ,137,4.932 ,0.04 ,70.79 ,118.10 ,0.24 ,0.46 


�C,Time,Time int.,,Lat.,,Long.,,Distance,,Direction,Speed,
Date(yyyy/mm/dd),(hh:mm),(hour),(min),(deg),(min),(deg),(min),(miles),(meter),(deg),(m/s),(knots)
2005/8/31,11:55,0,,36,47.652 ,137,4.326 ,,,,,
2005/8/31,12:00,0,5,36,47.640 ,137,4.356 ,0.03 ,49.84 ,116.50 ,0.17 ,0.32 
2005/8/31,12:05,0,5,36,47.604 ,137,4.416 ,0.06 ,111.35 ,126.78 ,0.37 ,0.72 
2005/8/31,12:10,0,5,36,47.622 ,137,4.428 ,0.02 ,37.78 ,28.25 ,0.13 ,0.24 
2005/8/31,12:20,0,10,36,47.622 ,137,4.500 ,0.06 ,107.10 ,90.06 ,0.18 ,0.35 
2005/8/31,12:25,0,5,36,47.622 ,137,4.542 ,0.03 ,62.48 ,90.05 ,0.21 ,0.40 
2005/8/31,12:30,0,5,36,47.628 ,137,4.560 ,0.02 ,28.98 ,67.54 ,0.10 ,0.19 
2005/8/31,12:35,0,5,36,47.604 ,137,4.602 ,0.04 ,76.64 ,125.45 ,0.26 ,0.50 
2005/8/31,12:40,0,5,36,47.598 ,137,4.638 ,0.03 ,54.69 ,101.76 ,0.18 ,0.35 
2005/8/31,12:45,0,5,36,47.604 ,137,4.662 ,0.02 ,37.39 ,72.79 ,0.12 ,0.24 
2005/8/31,12:50,0,5,36,47.592 ,137,4.704 ,0.04 ,66.30 ,109.61 ,0.22 ,0.43 
2005/8/31,12:55,0,5,36,47.586 ,137,4.740 ,0.03 ,54.69 ,101.76 ,0.18 ,0.35 
2005/8/31,13:00,0,5,36,47.598 ,137,4.782 ,0.04 ,66.30 ,70.49 ,0.22 ,0.43 
2005/8/31,13:05,0,5,36,47.604 ,137,4.818 ,0.03 ,54.69 ,78.34 ,0.18 ,0.35 
2005/8/31,13:10,0,5,36,47.610 ,137,4.842 ,0.02 ,37.39 ,72.78 ,0.12 ,0.24 
2005/8/31,13:15,0,5,36,47.610 ,137,4.878 ,0.03 ,53.55 ,90.05 ,0.18 ,0.35 
2005/8/31,13:20,0,5,36,47.610 ,137,4.914 ,0.03 ,53.55 ,90.05 ,0.18 ,0.35 
2005/8/31,13:25,0,5,36,47.616 ,137,4.950 ,0.03 ,54.69 ,78.34 ,0.18 ,0.35 
2005/8/31,13:30,0,5,36,47.622 ,137,4.968 ,0.02 ,28.98 ,67.54 ,0.10 ,0.19 
2005/8/31,13:40,0,10,36,47.652 ,137,5.040 ,0.07 ,120.62 ,62.66 ,0.20 ,0.39 
2005/8/31,13:45,0,5,36,47.640 ,137,5.058 ,0.02 ,34.78 ,129.71 ,0.12 ,0.23 
2005/8/31,13:55,0,10,36,47.616 ,137,5.118 ,0.05 ,99.68 ,116.49 ,0.17 ,0.32 
2005/8/31,14:00,0,5,36,47.616 ,137,5.148 ,0.02 ,44.63 ,90.05 ,0.15 ,0.29 
2005/8/31,14:05,0,5,36,47.616 ,137,5.160 ,0.01 ,17.85 ,90.05 ,0.06 ,0.12 
2005/8/31,14:10,0,5,36,47.604 ,137,5.184 ,0.02 ,42.04 ,121.92 ,0.14 ,0.27 
